Regional Weather Roundup
Issued by NWS Jackson, KY

Home | Current Version | Previous Version | Text Only | Print | Product List | Glossary Off
Versions: 1 2 3 4 5 6 7 8 9 10 11 12 13 14 15 16 17 18 19 20 21 22 23 24 25 26 27

000
ASUS43 KJKL 272310
RWRJKL

EAST KENTUCKY HOURLY WEATHER ROUNDUP
NATIONAL WEATHER SERVICE JACKSON KY
700 PM EDT THU APR 27 2017

NOTE: "FAIR" INDICATES FEW OR NO CLOUDS BELOW 12,000 FEET WITH
NO SIGNIFICANT WEATHER AND/OR OBSTRUCTIONS TO VISIBILITY.

* THESE REPORTS ARE NOT UNDER NWS QUALITY CONTROL AND MAY NOT
  REPORT WEATHER SUCH AS PRECIPITATION AND FOG.

KYZ079-080-083-085-087-088-110-112-115-119-120-280000
...EASTERN KENTUCKY...

CITY           SKY/WX    TMP DP  RH WIND       PRES   REMARKS
JACKSON        MOSUNNY   73  54  51 W12G21    29.79R
LONDON         MOSUNNY   73  50  44 W15       29.81R
SOMERSET*      SUNNY     70  46  43 W10       29.84R
MONTICELLO*    MOSUNNY   70  52  52 W13G22    29.85R
WILLIAMSBURG*  CLEAR     73  50  43 W7        29.81R
MIDDLESBORO*   PTSUNNY   76  61  60 S9        29.80R
HARLAN APT*    PTCLDY    72  55  56 SW3       29.81R
PIKE CO APT*   PTSUNNY   72  59  62 SW3       29.78R
BIG SANDY APT* CLEAR     76  54  45 SW9       29.77R
MOREHEAD APT*  PTCLDY    70  52  52 W7G17     29.81R
$$

KYZ035-036-041-042-044-050-067-078-099-280000
...CENTRAL KENTUCKY...

CITY           SKY/WX    TMP DP  RH WIND       PRES   REMARKS
MT STERLING*   SUNNY     66  54  63 NW13      29.83R
FLEMING/MASON* SUNNY     66  51  57 W15G22    29.81R
DANVILLE*      MOSUNNY   66  52  59 NW8G17    29.84R
LEXINGTON      SUNNY     65  48  54 W13       29.83R
FRANKFORT      MOSUNNY   63  46  54 W12       29.82R
LOUISVILLE     PTSUNNY   62  48  60 W10       29.83R
LEBANON*         N/A     64  50  59 W12       29.83S
GLASGOW*       MOSUNNY   62  50  63 W7        29.85R
BOWLING GREEN  CLOUDY    64  51  62 W7        29.84S
$$

KYZ091>093-OHZ055-061-077-WVZ005-015-034-035-042-280000
...SOUTHERN OHIO/WEST VIRGINIA...

CITY           SKY/WX    TMP DP  RH WIND       PRES   REMARKS
COVINGTON      PTSUNNY   62  47  57 W14       29.81R
COLUMBUS       MOSUNNY   68  48  48 W16G26    29.74R
DAYTON         PTSUNNY   60  45  57 W18       29.78R
WILMINGTON     SUNNY     62  48  60 W17       29.77R
HUNTINGTON     MOSUNNY   77  54  44 W13G21    29.73R
CHARLESTON     MOSUNNY   73  60  63 S9        29.74R
PINEVILLE*     CLOUDY    69  63  81 MISG      29.87S
BECKLEY        CLOUDY    63  58  83 S9        29.86R
BLUEFIELD      CLOUDY    60  56  86 VRB3      29.89S
LOGAN CO APT*    N/A     70  63  78 VRB7      29.79R
$$

VAZ002-007-008-TNZ017-027-036-066-071-280000
...SOUTHWEST VIRGINIA/EAST TENNESSEE...

CITY           SKY/WX    TMP DP  RH WIND       PRES   REMARKS
WISE*          MOSUNNY   66  55  68 SW12G17   29.87R
JONESVILLE*      N/A     73  61  64 SW8       29.83R
ABINGDON*      CLOUDY    65  64  96 SW6       29.87R
BRISTOL        PTSUNNY   69  64  84 VRB6      29.84S
MORRISTOWN*    CLEAR     73  63  68 W8        29.81R
SEVIERVILLE*   PTCLDY    73  63  68 W6        29.80R
KNOXVILLE      MOSUNNY   75  59  57 SW8       29.80R
LAFOLLETTE*    PTCLDY    77  48  36 VRB5G13   29.83R
OAK RIDGE      MOSUNNY   76  57  51 VRB5      29.81R
CROSSVILLE     SUNNY     69  51  52 W14       29.86R
NASHVILLE      PTSUNNY   69  49  48 W7        29.84R
$$

...KEY TO REMARKS...
VSB - VISIBILITY IN MILES
WCI - WIND CHILL INDEX
HX  - HEAT INDEX

$$




USA.gov is the U.S. government's official web portal to all federal, state and local government web resources and services.